Weather History for Jackson, MN

Change the Weather History Date:

Thursday, January 2, 2014

  Actual Average Record
Temperature  
Mean Temperature -7 °F -  
Max Temperature 0 °F 24 °F 46 °F (1998)
Min Temperature -14 °F 9 °F -14 °F (2014)
Degree Days  
Heating Degree Days 72    
Moisture  
Dew Point -15 °F    
Average Humidity 73    
Maximum Humidity 78    
Minimum Humidity 60    
Precipitation  
Precipitation 0.00 in - - ()
Sea Level Pressure  
Sea Level Pressure 30.37 in    
Wind  
Wind Speed 6 mph (NW)    
Max Wind Speed 13 mph    
Max Gust Speed -    
Visibility 10 miles    
Events      
Averages and records for this station are not official NWS values.
T = Trace of Precipitation, MM = Missing Value Source: NWS Daily Summary

Daily Weather History Graph

Daily Weather History Graph

Search for Another Location

Airport:

Trip Planner

Search our weather history database for the weather conditions in past years. The results will help you decide how hot, cold, wet, or windy it might be!

Date:

Astronomy

Jan. 02, 2014 Rise Set
Actual Time 7:53 AM CST 4:54 PM CST
Civil Twilight 7:20 AM CST 5:27 PM CST
Nautical Twilight 6:44 AM CST 6:03 PM CST
Astronomical Twilight 6:10 AM CST 6:38 PM CST
Moon 8:31 AM CST (1/2) 6:57 PM CST (1/2)
Length of Visible Light 10h 06m
Length of Day
9h 01m
Waxing Crescent, 3% of the Moon is Illuminated
Jan 2
Waxing Crescent
Jan 7
First Quarter
Jan 15
Full
Jan 23
Last Quarter
Jan 30
New

Hourly Weather History & Observations

Time (CST) Temp. Windchill Dew Point Humidity Pressure Visibility Wind Dir Wind Speed Gust Speed Precip Events Conditions
12:12 AM -0.4 °F -12.0 °F -7.6 °F 72% 30.35 in 10.0 mi North 5.8 mph - N/A   Overcast
12:33 AM -0.4 °F -10.4 °F -7.6 °F 72% 30.34 in 7.0 mi North 4.6 mph - N/A   Overcast
12:53 AM -0.4 °F -10.4 °F -7.6 °F 72% 30.34 in 10.0 mi North 4.6 mph - N/A   Overcast
1:12 AM -0.4 °F -13.4 °F -7.6 °F 72% 30.34 in 10.0 mi NNW 6.9 mph - N/A   Overcast
1:33 AM -0.4 °F -10.4 °F -7.6 °F 72% 30.33 in 10.0 mi North 4.6 mph - N/A   Overcast
1:53 AM -4.0 °F -14.6 °F -9.4 °F 78% 30.33 in 10.0 mi North 4.6 mph - N/A   Mostly Cloudy
2:13 AM -5.8 °F -18.4 °F -13.0 °F 71% 30.33 in 10.0 mi NNW 5.8 mph - N/A   Scattered Clouds
2:33 AM -5.8 °F -19.9 °F -11.2 °F 77% 30.34 in 10.0 mi NNW 6.9 mph - N/A   Clear
2:53 AM -5.8 °F -18.4 °F -11.2 °F 77% 30.34 in 10.0 mi NNW 5.8 mph - N/A   Clear
3:13 AM -5.8 °F -18.4 °F -11.2 °F 77% 30.33 in 10.0 mi NNW 5.8 mph - N/A   Clear
3:33 AM -7.6 °F -18.8 °F -13.0 °F 77% 30.33 in 10.0 mi NNW 4.6 mph - N/A   Clear
3:53 AM -9.4 °F -22.7 °F -14.8 °F 77% 30.33 in 10.0 mi NNW 5.8 mph - N/A   Clear
4:13 AM -7.6 °F -23.4 °F -13.0 °F 77% 30.33 in 10.0 mi NNW 8.1 mph - N/A   Clear
4:33 AM -7.6 °F -23.4 °F -14.8 °F 71% 30.33 in 10.0 mi NNW 8.1 mph - N/A   Clear
4:53 AM -9.4 °F -29.8 °F -14.8 °F 77% 30.34 in 10.0 mi NNW 12.7 mph - N/A   Clear
5:13 AM -9.4 °F -27.9 °F -14.8 °F 77% 30.34 in 10.0 mi NNW 10.4 mph - N/A   Clear
5:33 AM -13.0 °F -32.4 °F -18.4 °F 77% 30.35 in 10.0 mi NNW 10.4 mph - N/A   Clear
5:53 AM -11.2 °F -30.1 °F -18.4 °F 70% 30.36 in 10.0 mi NNW 10.4 mph - N/A   Clear
6:13 AM -9.4 °F -27.9 °F -16.6 °F 71% 30.37 in 10.0 mi NNW 10.4 mph - N/A   Clear
6:33 AM -11.2 °F -27.8 °F -18.4 °F 70% 30.36 in 10.0 mi NNW 8.1 mph - N/A   Clear
6:52 AM -13.0 °F -22.7 °F -20.2 °F 70% 30.36 in 10.0 mi North 3.5 mph - N/A   Clear
7:13 AM -13.0 °F -25.1 °F -18.4 °F 77% 30.36 in 10.0 mi NNW 4.6 mph - N/A   Clear
7:33 AM -13.0 °F -22.7 °F -18.4 °F 77% 30.37 in 10.0 mi NNW 3.5 mph - N/A   Clear
7:53 AM -13.0 °F -25.1 °F -20.2 °F 70% 30.37 in 10.0 mi NNW 4.6 mph - N/A   Clear
8:13 AM -14.8 °F -24.8 °F -22.0 °F 70% 30.37 in 10.0 mi North 3.5 mph - N/A   Clear
8:33 AM -14.8 °F -27.2 °F -20.2 °F 77% 30.38 in 10.0 mi NNW 4.6 mph - N/A   Clear
8:53 AM -13.0 °F -27.0 °F -18.4 °F 77% 30.39 in 7.0 mi NNW 5.8 mph - N/A   Clear
9:13 AM -13.0 °F -28.6 °F -18.4 °F 77% 30.40 in 10.0 mi NNW 6.9 mph - N/A   Clear
9:33 AM -9.4 °F -25.6 °F -16.6 °F 71% 30.40 in 10.0 mi NNW 8.1 mph - N/A   Clear
9:53 AM -11.2 °F -26.4 °F -16.6 °F 77% 30.42 in 10.0 mi NW 6.9 mph - N/A   Clear
10:13 AM -9.4 °F -18.6 °F -14.8 °F 77% 30.42 in 10.0 mi NNW 3.5 mph - N/A   Clear
10:32 AM -7.6 °F -23.4 °F -14.8 °F 71% 30.42 in 10.0 mi NNW 8.1 mph - N/A   Clear
10:53 AM -7.6 °F -20.6 °F -13.0 °F 77% 30.43 in 10.0 mi NNW 5.8 mph - N/A   Clear
11:13 AM -7.6 °F -16.5 °F -13.0 °F 77% 30.43 in 10.0 mi NNW 3.5 mph - N/A   Clear
11:32 AM -5.8 °F -16.7 °F -13.0 °F 71% 30.42 in 10.0 mi North 4.6 mph - N/A   Clear
11:53 AM -5.8 °F -16.7 °F -13.0 °F 71% 30.43 in 10.0 mi NNW 4.6 mph - N/A   Clear
12:13 PM -5.8 °F -19.9 °F -11.2 °F 77% 30.42 in 10.0 mi NNW 6.9 mph - N/A   Clear
12:32 PM -5.8 °F -19.9 °F -11.2 °F 77% 30.41 in 10.0 mi NNW 6.9 mph - N/A   Clear
12:53 PM -4.0 °F -12.4 °F -9.4 °F 78% 30.41 in 10.0 mi NNW 3.5 mph - N/A   Clear
1:13 PM -4.0 °F -20.2 °F -9.4 °F 78% 30.40 in 10.0 mi NW 9.2 mph - N/A   Clear
1:32 PM -4.0 °F -16.3 °F -11.2 °F 71% 30.40 in 10.0 mi NNW 5.8 mph - N/A   Clear
1:53 PM -4.0 °F -12.4 °F -13.0 °F 65% 30.40 in 10.0 mi North 3.5 mph - N/A   Clear
2:13 PM -4.0 °F -16.3 °F -13.0 °F 65% 30.39 in 10.0 mi NNW 5.8 mph - N/A   Clear
2:32 PM -4.0 °F -14.6 °F -13.0 °F 65% 30.40 in 10.0 mi NNW 4.6 mph - N/A   Clear
2:53 PM -4.0 °F -16.3 °F -13.0 °F 65% 30.40 in 10.0 mi NNW 5.8 mph - N/A   Clear
3:13 PM -4.0 °F - -14.8 °F 60% 30.40 in 10.0 mi Calm Calm - N/A   Clear
3:33 PM -4.0 °F - -14.8 °F 60% 30.40 in 10.0 mi Calm Calm - N/A   Clear
3:53 PM -5.8 °F -18.4 °F -14.8 °F 65% 30.40 in 10.0 mi North 5.8 mph - N/A   Clear
4:13 PM -7.6 °F -18.8 °F -14.8 °F 71% 30.41 in 10.0 mi NNW 4.6 mph - N/A   Clear
4:33 PM -7.6 °F -18.8 °F -14.8 °F 71% 30.41 in 10.0 mi NW 4.6 mph - N/A   Clear
4:53 PM -9.4 °F -22.7 °F -16.6 °F 71% 30.41 in 10.0 mi West 5.8 mph - N/A   Clear
5:13 PM -9.4 °F -18.6 °F -18.4 °F 65% 30.41 in 10.0 mi West 3.5 mph - N/A   Clear
5:33 PM -9.4 °F - -16.6 °F 71% 30.42 in 10.0 mi Calm Calm - N/A   Clear
5:53 PM -9.4 °F - -16.6 °F 71% 30.41 in 10.0 mi Calm Calm - N/A   Clear
6:13 PM -9.4 °F - -16.6 °F 71% 30.40 in 10.0 mi Calm Calm - N/A   Clear
6:33 PM -9.4 °F - -14.8 °F 77% 30.39 in 10.0 mi Calm Calm - N/A   Clear
6:53 PM -9.4 °F - -14.8 °F 77% 30.38 in 10.0 mi Calm Calm - N/A   Clear
7:13 PM -9.4 °F - -16.6 °F 71% 30.38 in 10.0 mi Calm Calm - N/A   Clear
7:33 PM -13.0 °F - -18.4 °F 77% 30.38 in 10.0 mi Calm Calm - N/A   Clear
7:53 PM -9.4 °F - -16.6 °F 71% 30.37 in 10.0 mi Calm Calm - N/A   Clear
8:13 PM -14.8 °F -27.2 °F -22.0 °F 70% 30.37 in 10.0 mi South 4.6 mph - N/A   Clear
8:33 PM -14.8 °F -27.2 °F -22.0 °F 70% 30.36 in 7.0 mi SSW 4.6 mph - N/A   Clear
8:53 PM -13.0 °F -30.0 °F -20.2 °F 70% 30.35 in 10.0 mi South 8.1 mph - N/A   Clear
9:13 PM -13.0 °F -28.6 °F -18.4 °F 77% 30.34 in 10.0 mi South 6.9 mph - N/A   Clear
9:32 PM -13.0 °F -28.6 °F -18.4 °F 77% 30.34 in 3.0 mi South 6.9 mph - N/A   Haze
9:53 PM -13.0 °F -27.0 °F -18.4 °F 77% 30.34 in 7.0 mi South 5.8 mph - N/A   Clear
10:13 PM -11.2 °F -26.4 °F -18.4 °F 70% 30.32 in 10.0 mi South 6.9 mph - N/A   Clear
10:33 PM -13.0 °F -28.6 °F -18.4 °F 77% 30.32 in 10.0 mi South 6.9 mph - N/A   Clear
10:53 PM -11.2 °F -27.8 °F -18.4 °F 70% 30.31 in 10.0 mi South 8.1 mph - N/A   Clear
11:13 PM -9.4 °F -25.6 °F -16.6 °F 71% 30.31 in 10.0 mi South 8.1 mph - N/A   Clear
11:33 PM -9.4 °F -26.8 °F -16.6 °F 71% 30.30 in 10.0 mi South 9.2 mph - N/A   Clear
11:53 PM -9.4 °F -27.9 °F -16.6 °F 71% 30.28 in 10.0 mi South 10.4 mph - N/A   Scattered Clouds